Notices

What's New in latest Release from April 7th, 2021:

- Updated Glossary, including Speed of Maximum Gust, and Total Hourly Precipitation

- Updated national and regional climate services offices contacts and prices information

- Addition of station inventory lists for 1981-2010, 1971-2000, and 1961-1990 Normals.

If you haven't already, please take our survey and provide feedback about our website: https://eccc.sondage-survey.ca/f/LanguageSelection.aspx?s=442ca660-fcf1-47c0-95a9-59707d6fd709

Hourly Data Report for September 05, 2019

QUALICUM BEACH AIRPORT
BRITISH COLUMBIA
Current Station Operator: ECCC - MSC

49°20'14.000" N
124°23'38.000" W
58.20 m
1026562
71766
VOQ

Download Data

Hourly Data (September 2019)
Hourly Data Report for September 5, 2019
TIME
LST
Temp Definition
°C
Dew Point Definition
°C
Rel Hum Definition
%
Precip. Amount Definition
mm

Wind Dir Definition
10's deg

Wind Spd Definition
km/h
Visibility Definition
km
Stn Press Definition
kPa
Hmdx Definition


Wind Chill Definition


Weather Definition


00:00 14.8 12.5 86 0.0 26 5   101.08     LegendNANA
01:00 14.3 11.7 85 0.0 27 4   101.07     LegendNANA
02:00 13.4 11.2 86 0.0 25 3   101.08     LegendNANA
03:00 12.7 10.7 88 0.0 26 5   101.09     LegendNANA
04:00 13.6 10.6 83 0.0 28 6   101.10     LegendNANA
05:00 12.2 10.1 87 0.0 26 4   101.11     LegendNANA
06:00 11.8 9.7 87 0.0 27 3   101.13     LegendNANA
07:00 15.5 11.3 76 0.0 27 6   101.15     LegendNANA
08:00 17.7 11.6 68 0.0 30 11   101.15     LegendNANA
09:00 18.4 11.6 65 0.0 30 9   101.14     LegendNANA
10:00 19.2 12.0 63 0.0 30 9   101.10     LegendNANA
11:00 21.7 11.6 53 0.0 32 11   101.07     LegendNANA
12:00 21.4 12.9 58 0.0 32 12   101.01     LegendNANA
13:00 22.1 11.9 52 0.0 33 13   100.97     LegendNANA
14:00 22.4 11.3 49 0.0 34 12   100.92     LegendNANA
15:00 23.2 11.9 49 0.0 36 7   100.85 25   LegendNANA
16:00 23.9 11.1 45 0.0 33 11   100.79 26   LegendNANA
17:00 24.4 11.2 43 0.0 31 10   100.74 26   LegendNANA
18:00 23.8 10.7 44 0.0 29 8   100.71 25   LegendNANA
19:00 20.7 11.6 56 0.0 27 2   100.70     LegendNANA
20:00 18.3 11.9 66 0.0 25 3   100.73     LegendNANA
21:00 17.2 12.3 73 0.0 24 4   100.75     LegendNANA
22:00 16.2 12.4 78 0.0 28 2   100.75     LegendNANA
23:00 15.2 12.0 82 0.0 25 1   100.77     LegendNANA

Notes on Data Quality.

Legend

  • E = Estimated
  • M = Missing
  • NA = Not Available*
  • [empty] = Indicates an unobserved value
Date modified: